User: anonymous
Location: Unspecified
(0.0000°N, 0.0000°E)
Time: 05:51:16
(UTC+00:00)
Language:

A-11 Canister half - Orbit

View from above orbital plane
View from above orbital plane
View from above satellite
View from above satellite

Ground track
Ground track

The orbit data is extracted from the following two-line orbital elements,

1 00051U 60009C   14109.48690723 -.00000084  00000-0  00000+0 0  5825
2 00051 047.2122 111.2082 0105526 309.9270 218.5737 12.18235018389677
Epoch (UTC): 19 April 2014 11:41:08
Eccentricity: 0.0105526
inclination: 47.2122°
perigee height: 1516 km
apogee height: 1684 km
right ascension of ascending node: 111.2082°
argument of perigee: 309.9270°
revolutions per day: 12.18235018
mean anomaly at epoch: 218.5737°
orbit number at epoch: 38967

The dashed part of the orbit path shows where the satellite is in the earth's shadow,  

DLR